| time (UTC) | temp C | wind direction | speed KPH | gust KPH | rain 1hr cm | rain 24hr cm | rain mn cm | humidity % | barometer mb |
| 20260505093004 | 14 | 186 | 3.2 | 16.1 | 0.00 | 0.10 | 0.00 | 66 | 999.4 |
| 20260505091501 | 15 | 201 | 6.4 | 20.9 | 0.00 | 0.10 | 0.00 | 66 | 999.6 |
| 20260505090058 | 15 | 225 | 9.7 | 22.5 | 0.00 | 0.10 | 0.00 | 65 | 999.6 |
| 20260505084557 | 15 | 214 | 12.9 | 33.8 | 0.00 | 0.13 | 0.00 | 63 | 999.6 |
| 20260505083056 | 14 | 198 | 6.4 | 11.3 | 0.00 | 0.13 | 0.00 | 62 | 999.9 |
| 20260505081555 | 14 | 201 | 6.4 | 16.1 | 0.00 | 0.13 | 0.00 | 62 | 999.9 |
| 20260505080103 | 14 | 210 | 9.7 | 17.7 | 0.00 | 0.13 | 0.00 | 62 | 1000.0 |
| 20260505074551 | 14 | 200 | 3.2 | 12.9 | 0.00 | 0.13 | 0.00 | 62 | 999.8 |
| 20260505073054 | 14 | 215 | 4.8 | 14.5 | 0.00 | 0.13 | 0.00 | 62 | 999.8 |
| 20260505071549 | 14 | 190 | 4.8 | 11.3 | 0.00 | 0.13 | 0.00 | 62 | 999.6 |
| 20260505070052 | 14 | 213 | 3.2 | 9.7 | 0.00 | 0.13 | 0.00 | 60 | 999.6 |
| 20260505064545 | 15 | 195 | 4.8 | 12.9 | 0.00 | 0.13 | 0.00 | 60 | 999.8 |
| 20260505063057 | 15 | 165 | 1.6 | 8.0 | 0.00 | 0.13 | 0.00 | 61 | 1000.0 |
| 20260505061543 | 14 | 192 | 3.2 | 11.3 | 0.00 | 0.13 | 0.00 | 62 | 1000.2 |
| 20260505060038 | 14 | 193 | 6.4 | 11.3 | 0.00 | 0.13 | 0.00 | 62 | 1000.5 |
| 20260505054539 | 13 | 202 | 3.2 | 9.7 | 0.00 | 0.13 | 0.00 | 63 | 1000.5 |
| 20260505053035 | 13 | 179 | 1.6 | 6.4 | 0.00 | 0.13 | 0.00 | 64 | 1000.5 |
| 20260505051533 | 13 | 194 | 1.6 | 6.4 | 0.00 | 0.13 | 0.00 | 64 | 1000.8 |
| 20260505041540 | 13 | 208 | 0.0 | 6.4 | 0.00 | 0.13 | 0.00 | 64 | 1001.3 |
| 20260505040036 | 14 | 211 | 1.6 | 4.8 | 0.00 | 0.13 | 0.00 | 63 | 1001.3 |
| 20260505034524 | 14 | 203 | 1.6 | 6.4 | 0.00 | 0.13 | 0.00 | 63 | 1001.4 |
| 20260505033022 | 15 | 162 | 1.6 | 8.0 | 0.00 | 0.13 | 0.00 | 63 | 1001.5 |
| 20260505031534 | 15 | 211 | 1.6 | 11.3 | 0.00 | 0.13 | 0.00 | 63 | 1001.6 |
| 20260505030122 | 15 | 196 | 1.6 | 6.4 | 0.00 | 0.13 | 0.00 | 63 | 1001.5 |
| 20260505024520 | 15 | 188 | 0.0 | 4.8 | 0.00 | 0.13 | 0.00 | 63 | 1001.7 |
| 20260505023019 | 15 | 205 | 0.0 | 3.2 | 0.00 | 0.13 | 0.00 | 63 | 1001.8 |
| 20260505021519 | 15 | 206 | 0.0 | 1.6 | 0.00 | 0.13 | 0.00 | 62 | 1002.0 |
| 20260505020018 | 15 | 206 | 0.0 | 3.2 | 0.00 | 0.13 | 0.00 | 61 | 1002.2 |
| 20260505014520 | 16 | 210 | 1.6 | 8.0 | 0.00 | 0.13 | 0.00 | 59 | 1002.2 |
| 20260505013017 | 16 | 229 | 4.8 | 12.9 | 0.00 | 0.13 | 0.00 | 58 | 1002.2 |
| 20260505011519 | 17 | 213 | 8.0 | 14.5 | 0.00 | 0.13 | 0.00 | 58 | 1002.2 |
| 20260505010021 | 16 | 224 | 3.2 | 8.0 | 0.00 | 0.13 | 0.00 | 58 | 1001.9 |
| 20260505004515 | 17 | 213 | 6.4 | 14.5 | 0.00 | 0.13 | 0.00 | 56 | 1001.8 |
| 20260505003014 | 17 | 198 | 6.4 | 14.5 | 0.00 | 0.13 | 0.00 | 57 | 1001.6 |
| 20260505001515 | 17 | 206 | 4.8 | 14.5 | 0.00 | 0.13 | 0.00 | 56 | 1001.7 |
| 20260505000013 | 17 | 234 | 6.4 | 16.1 | 0.00 | 0.13 | 0.00 | 56 | 1001.7 |
| 20260504234513 | 17 | 214 | 8.0 | 16.1 | 0.00 | 0.13 | 0.00 | 56 | 1001.6 |
| 20260504233012 | 17 | 234 | 9.7 | 17.7 | 0.00 | 0.13 | 0.00 | 55 | 1001.6 |
| 20260504231511 | 17 | 224 | 4.8 | 12.9 | 0.00 | 0.13 | 0.00 | 56 | 1001.5 |
| 20260504230012 | 17 | 212 | 8.0 | 16.1 | 0.00 | 0.13 | 0.00 | 55 | 1001.4 |
| 20260504224512 | 17 | 232 | 14.5 | 25.7 | 0.00 | 0.13 | 0.00 | 55 | 1001.7 |
| 20260504223013 | 17 | 205 | 12.9 | 27.4 | 0.00 | 0.13 | 0.00 | 54 | 1001.9 |
| 20260504221506 | 17 | 233 | 12.9 | 24.1 | 0.00 | 0.13 | 0.00 | 53 | 1002.0 |
| 20260504220011 | 17 | 205 | 14.5 | 29.0 | 0.00 | 0.13 | 0.00 | 53 | 1001.8 |
| 20260504214504 | 18 | 238 | 12.9 | 30.6 | 0.00 | 0.13 | 0.00 | 53 | 1001.9 |
| 20260504213010 | 18 | 225 | 11.3 | 27.4 | 0.00 | 0.13 | 0.00 | 53 | 1001.7 |
| 20260504211501 | 18 | 217 | 14.5 | 22.5 | 0.00 | 0.13 | 0.00 | 53 | 1001.8 |
| 20260504210101 | 18 | 206 | 14.5 | 25.7 | 0.00 | 0.13 | 0.00 | 54 | 1001.8 |
| 20260504204558 | 18 | 232 | 14.5 | 33.8 | 0.00 | 0.13 | 0.00 | 53 | 1002.0 |
| 20260504203109 | 18 | 242 | 16.1 | 30.6 | 0.00 | 0.13 | 0.00 | 54 | 1001.9 |
| 20260504201558 | 18 | 248 | 17.7 | 38.6 | 0.00 | 0.13 | 0.00 | 55 | 1002.1 |
| 20260504200059 | 18 | 250 | 12.9 | 35.4 | 0.00 | 0.13 | 0.00 | 55 | 1002.1 |
| 20260504194550 | 17 | 225 | 12.9 | 22.5 | 0.00 | 0.13 | 0.00 | 58 | 1002.2 |
| 20260504193050 | 17 | 257 | 6.4 | 25.7 | 0.00 | 0.13 | 0.00 | 59 | 1002.5 |
| 20260504191555 | 17 | 249 | 14.5 | 29.0 | 0.00 | 0.13 | 0.00 | 59 | 1002.6 |
| 20260504190046 | 16 | 229 | 9.7 | 19.3 | 0.00 | 0.13 | 0.00 | 63 | 1002.8 |
| 20260504184539 | 15 | 244 | 9.7 | 17.7 | 0.00 | 0.13 | 0.00 | 65 | 1003.0 |
| 20260504183037 | 15 | 204 | 6.4 | 12.9 | 0.00 | 0.13 | 0.00 | 67 | 1003.4 |
| 20260504181543 | 15 | 232 | 8.0 | 22.5 | 0.00 | 0.13 | 0.00 | 66 | 1003.5 |
| 20260504180034 | 15 | 222 | 11.3 | 17.7 | 0.00 | 0.13 | 0.00 | 67 | 1003.5 |
| 20260504174530 | 14 | 244 | 6.4 | 17.7 | 0.00 | 0.13 | 0.00 | 68 | 1003.6 |
| 20260504173027 | 15 | 225 | 11.3 | 25.7 | 0.00 | 0.13 | 0.00 | 68 | 1003.7 |
| 20260504171524 | 13 | 237 | 12.9 | 24.1 | 0.00 | 0.13 | 0.00 | 70 | 1003.9 |
| 20260504170120 | 13 | 253 | 9.7 | 20.9 | 0.00 | 0.13 | 0.00 | 73 | 1004.0 |
| 20260504150107 | 11 | 234 | 12.9 | 24.1 | 0.00 | 0.13 | 0.00 | 83 | 1004.6 |